Location: Carri�res
(48.9069°N, 2.1792°E)
Time: 11:26:31
(UTC+00:00)

deb Kosmos- 1898 - Pass Details

Date: 31 July 2021
Orbit: 731 x 754 km, 74.0° (Epoch: 18 September)

Event Time Altitude Azimuth Distance (km) Brightness Sun altitude
Exits shadow 01:18:14 18° 138° (SE) 1,760 ? -20.5°
Maximum altitude 01:20:36 25° 99° (E) 1,462 ? -20.4°
Drops below altitude 10° 01:24:46 10° 45° (NE) 2,275 ? -20.1°
Sets 01:27:29 0° 33° (NNE) 3,208 ? -19.9°
